| time (UTC) | temp F | wind direction | speed MPH | gust MPH | rain 1hr in | rain 24hr in | rain mn in | humidity % | barometer mb |
| 20260504081509 | 36 | 84 | 0.0 | 0.0 | 0.00 | 0.00 | 0.00 | 33 | 1014.0 |
| 20260504044546 | 41 | 82 | 0.0 | 0.0 | 0.00 | 0.00 | 0.00 | 62 | 1013.9 |
| 20260504043040 | 41 | 84 | 0.0 | 0.0 | 0.00 | 0.00 | 0.00 | 66 | 1013.8 |
| 20260504041536 | 42 | 83 | 0.0 | 0.0 | 0.00 | 0.00 | 0.00 | 66 | 1013.6 |
| 20260504040043 | 42 | 84 | 0.0 | 0.0 | 0.00 | 0.00 | 0.00 | 67 | 1013.5 |
| 20260504034534 | 42 | 83 | 0.0 | 0.0 | 0.00 | 0.00 | 0.00 | 67 | 1013.3 |
| 20260504033033 | 43 | 84 | 0.0 | 0.0 | 0.00 | 0.00 | 0.00 | 68 | 1013.2 |
| 20260504031533 | 43 | 82 | 0.0 | 0.0 | 0.00 | 0.00 | 0.00 | 69 | 1013.3 |
| 20260504030032 | 43 | 83 | 0.0 | 0.0 | 0.00 | 0.00 | 0.00 | 69 | 1013.2 |
| 20260504024532 | 44 | 84 | 0.0 | 0.0 | 0.00 | 0.00 | 0.00 | 69 | 1013.2 |
| 20260504023031 | 44 | 82 | 0.0 | 0.0 | 0.00 | 0.00 | 0.00 | 68 | 1013.3 |
| 20260504021530 | 45 | 84 | 0.0 | 0.0 | 0.00 | 0.00 | 0.00 | 67 | 1013.2 |
| 20260504020030 | 46 | 84 | 0.0 | 0.0 | 0.00 | 0.00 | 0.00 | 63 | 1013.2 |
| 20260504014530 | 47 | 84 | 0.0 | 0.0 | 0.00 | 0.00 | 0.00 | 63 | 1013.0 |
| 20260504013036 | 48 | 84 | 0.0 | 0.0 | 0.00 | 0.00 | 0.00 | 61 | 1013.0 |
| 20260504011528 | 48 | 83 | 0.0 | 0.0 | 0.00 | 0.00 | 0.00 | 59 | 1012.8 |
| 20260504010027 | 50 | 84 | 0.0 | 0.0 | 0.00 | 0.00 | 0.00 | 56 | 1012.7 |
| 20260504004527 | 51 | 84 | 0.0 | 0.0 | 0.00 | 0.00 | 0.00 | 53 | 1012.5 |
| 20260504003027 | 53 | 84 | 0.0 | 0.0 | 0.00 | 0.00 | 0.00 | 50 | 1012.3 |
| 20260504001526 | 55 | 84 | 0.0 | 0.0 | 0.00 | 0.00 | 0.00 | 44 | 1012.1 |
| 20260504000026 | 56 | 91 | 0.0 | 1.0 | 0.00 | 0.00 | 0.00 | 41 | 1012.0 |
| 20260503234527 | 57 | 263 | 0.0 | 3.0 | 0.00 | 0.00 | 0.00 | 40 | 1011.8 |
| 20260503233024 | 58 | 106 | 0.0 | 1.0 | 0.00 | 0.00 | 0.00 | 39 | 1011.8 |
| 20260503231524 | 59 | 250 | 0.0 | 3.0 | 0.00 | 0.00 | 0.00 | 36 | 1011.7 |
| 20260503230024 | 60 | 293 | 1.0 | 5.0 | 0.00 | 0.00 | 0.00 | 34 | 1011.6 |
| 20260503224523 | 61 | 233 | 1.0 | 7.0 | 0.00 | 0.00 | 0.00 | 32 | 1011.5 |
| 20260503223022 | 63 | 285 | 0.0 | 5.0 | 0.00 | 0.00 | 0.00 | 33 | 1011.6 |
| 20260503221521 | 64 | 293 | 0.0 | 6.0 | 0.00 | 0.00 | 0.00 | 32 | 1011.6 |
| 20260503220019 | 63 | 270 | 0.0 | 4.0 | 0.00 | 0.00 | 0.00 | 35 | 1011.6 |
| 20260503214518 | 63 | 256 | 2.0 | 6.0 | 0.00 | 0.00 | 0.00 | 33 | 1011.6 |
| 20260503213018 | 63 | 276 | 2.0 | 5.0 | 0.00 | 0.00 | 0.00 | 32 | 1011.6 |
| 20260503211520 | 63 | 285 | 3.0 | 8.0 | 0.00 | 0.00 | 0.00 | 30 | 1011.5 |
| 20260503210016 | 63 | 291 | 2.0 | 5.0 | 0.00 | 0.00 | 0.00 | 35 | 1011.4 |
| 20260503204513 | 62 | 286 | 1.0 | 5.0 | 0.00 | 0.00 | 0.00 | 33 | 1011.5 |
| 20260503203012 | 62 | 264 | 2.0 | 7.0 | 0.00 | 0.00 | 0.00 | 32 | 1011.7 |
| 20260503201509 | 61 | 200 | 3.0 | 8.0 | 0.00 | 0.00 | 0.00 | 36 | 1011.8 |
| 20260503200009 | 61 | 278 | 2.0 | 5.0 | 0.00 | 0.00 | 0.00 | 36 | 1011.9 |
| 20260503194507 | 60 | 290 | 2.0 | 9.0 | 0.00 | 0.00 | 0.00 | 35 | 1012.1 |
| 20260503193007 | 61 | 337 | 3.0 | 7.0 | 0.00 | 0.00 | 0.00 | 35 | 1012.4 |
| 20260503191503 | 60 | 315 | 1.0 | 9.0 | 0.00 | 0.00 | 0.00 | 35 | 1012.3 |
| 20260503190004 | 59 | 276 | 2.0 | 5.0 | 0.00 | 0.00 | 0.00 | 35 | 1012.4 |
| 20260503184502 | 59 | 268 | 2.0 | 8.0 | 0.00 | 0.00 | 0.00 | 34 | 1012.7 |
| 20260503183000 | 58 | 6 | 2.0 | 8.0 | 0.00 | 0.00 | 0.00 | 34 | 1012.9 |
| 20260503181600 | 59 | 318 | 1.0 | 7.0 | 0.00 | 0.00 | 0.00 | 38 | 1012.8 |
| 20260503174558 | 58 | 288 | 1.0 | 7.0 | 0.00 | 0.00 | 0.00 | 38 | 1012.8 |
| 20260503173113 | 58 | 285 | 2.0 | 9.0 | 0.00 | 0.00 | 0.00 | 37 | 1012.9 |
| 20260503171555 | 58 | 295 | 1.0 | 7.0 | 0.00 | 0.00 | 0.00 | 38 | 1013.1 |